DW4719 Vilanova I la Geltru ES current weather conditions

sailwx.info

Wind from 275 at 4 knots

Air temperature 17.2° C
Dewpoint 11.5° C

Last reported at 2017-Apr-24 09:09 UTC.
Time now 2017-Apr-24 09:32 UTC

Location: N 41°13' E 001°44'.
View on Google Maps.

See reports from other nearby stations

  
Tides and Currents Weather Stations Pressure Air Temp Water Temp Dewpoint Dewpoint Depression Visibility Wind Speed Wind Dir Waves Ship Positions
date/time (UTC)wind fromknots sea level pressurealtimeterstation pressurevisibilityair tempwater tempwave heightnotes
2017-Apr-24 09:09 275 4 17.2
2017-Apr-24 09:04 192 4 17.2
2017-Apr-24 08:59 215 4 17.2
2017-Apr-24 08:54 215 4 17.2
2017-Apr-24 08:49 253 3 17.2
2017-Apr-24 08:44 206 3 17.2
2017-Apr-24 08:39 239 4 16.7
2017-Apr-24 08:34 206 4 16.7
2017-Apr-24 08:29 223 3 16.7
2017-Apr-24 08:24 195 3 17.2
2017-Apr-24 08:19 258 4 16.7
2017-Apr-24 08:14 223 4 16.7
2017-Apr-24 08:09 239 4 16.7
2017-Apr-24 08:04 241 4 16.7
2017-Apr-24 07:59 229 3 16.7
2017-Apr-24 07:54 240 3 16.7
2017-Apr-24 07:49 210 3 16.7
2017-Apr-24 07:35 271 2 16.1
2017-Apr-24 07:34 236 2 16.1
2017-Apr-24 07:29 223 1 16.1
2017-Apr-24 07:24 270 0 16.1
2017-Apr-24 07:19 099 15.6
2017-Apr-24 07:14 052 0 15.0
2017-Apr-24 07:09 052 0 14.4
2017-Apr-24 07:04 052 0 14.4
2017-Apr-24 06:59 052 0 13.9
2017-Apr-24 06:54 052 0 13.3
2017-Apr-24 06:49 052 0 12.8
2017-Apr-24 06:44 054 1 12.2
2017-Apr-24 06:39 058 1 11.7
2017-Apr-24 06:34 064 0 11.7
2017-Apr-24 06:29 048 0 11.1
2017-Apr-24 06:24 011 1 10.6
2017-Apr-24 06:19 013 0 10.6
2017-Apr-24 06:14 032 1 10.6
2017-Apr-24 06:09 056 1 10.0
2017-Apr-24 06:04 014 1 10.0
2017-Apr-24 05:59 025 1 10.0
2017-Apr-24 05:54 001 1 9.4
2017-Apr-24 05:49 031 1 9.4
2017-Apr-24 05:44 017 1 9.4
2017-Apr-24 05:39 360 1 9.4
2017-Apr-24 05:34 018 1 9.4
2017-Apr-24 05:29 004 1 9.4
2017-Apr-24 05:24 048 1 9.4
2017-Apr-24 05:19 008 1 9.4
2017-Apr-24 05:14 011 1 9.4
2017-Apr-24 05:09 360 1 9.4
2017-Apr-24 05:04 038 1 9.4
2017-Apr-24 04:59 013 1 9.4
2017-Apr-24 04:54 059 1 9.4
2017-Apr-24 04:49 018 0 9.4
2017-Apr-24 04:44 030 0 9.4
2017-Apr-24 04:39 062 0 9.4
2017-Apr-24 04:34 360 0 9.4
2017-Apr-24 04:29 024 0 10.0
2017-Apr-24 04:24 065 1 9.4
2017-Apr-24 04:19 021 1 9.4
2017-Apr-24 04:14 045 1 9.4
2017-Apr-24 04:09 028 1 10.0
2017-Apr-24 04:04 010 1 10.0
2017-Apr-24 03:59 344 1 10.0
2017-Apr-24 03:54 001 1 10.0
2017-Apr-24 03:49 360 1 10.0
2017-Apr-24 03:44 360 1 10.0
2017-Apr-24 03:39 016 1 10.0
2017-Apr-24 03:34 034 0 10.0
2017-Apr-24 03:29 034 0 10.0
2017-Apr-24 03:24 010 0 10.0
2017-Apr-24 03:19 010 0 10.0
2017-Apr-24 03:14 021 0 10.0
2017-Apr-24 03:09 003 1 10.0
2017-Apr-24 03:04 001 0 10.0
2017-Apr-24 02:59 041 0 10.0
2017-Apr-24 02:54 007 1 10.0
2017-Apr-24 02:49 080 1 10.6
2017-Apr-24 02:44 360 1 10.6
2017-Apr-24 02:39 360 1 10.6
2017-Apr-24 02:34 359 1 10.6
2017-Apr-24 02:29 343 1 10.6
2017-Apr-24 02:24 003 1 10.6
2017-Apr-24 02:19 349 1 10.6
2017-Apr-24 02:14 025 1 10.6
2017-Apr-24 02:09 011 1 10.6
2017-Apr-24 02:04 360 1 11.1
2017-Apr-24 01:59 354 1 11.1
2017-Apr-24 01:54 004 0 11.1
2017-Apr-24 01:49 013 0 11.1
2017-Apr-24 01:44 018 0 11.1
2017-Apr-24 01:39 069 0 11.1
2017-Apr-24 01:34 069 0 11.1
2017-Apr-24 01:29 030 0 11.1
2017-Apr-24 01:24 030 0 11.1
2017-Apr-24 01:19 031 1 11.1
2017-Apr-24 01:14 359 1 11.7
2017-Apr-24 01:09 360 1 11.7
2017-Apr-24 01:04 360 1 11.7
2017-Apr-24 00:59 006 1 11.7
2017-Apr-24 00:54 016 1 11.7
2017-Apr-24 00:49 032 0 11.7
2017-Apr-24 00:44 035 0 11.7
2017-Apr-24 00:39 035 0 11.7
2017-Apr-24 00:34 035 0 11.7
2017-Apr-24 00:29 035 0 11.7
2017-Apr-24 00:24 035 0 11.7
2017-Apr-24 00:19 035 0 11.7
2017-Apr-24 00:14 035 0 12.2
2017-Apr-24 00:09 037 0 12.2
2017-Apr-24 00:04 037 0 12.2
2017-Apr-23 23:59 031 0 12.2
2017-Apr-23 23:54 030 0 12.2
2017-Apr-23 23:49 035 0 12.2
2017-Apr-23 23:44 031 0 12.2
2017-Apr-23 23:39 014 0 12.2
2017-Apr-23 23:34 014 0 12.2
2017-Apr-23 23:29 017 0 12.2
2017-Apr-23 23:24 030 0 12.8
2017-Apr-23 23:19 037 0 12.8
2017-Apr-23 23:14 035 1 12.8
2017-Apr-23 23:09 038 1 12.8
2017-Apr-23 23:04 052 0 12.8
2017-Apr-23 22:59 049 0 12.8
2017-Apr-23 22:54 051 0 12.8
2017-Apr-23 22:49 051 0 12.8
2017-Apr-23 22:44 052 0 12.8
2017-Apr-23 22:39 040 0 12.8
2017-Apr-23 22:34 038 0 12.8
2017-Apr-23 22:29 038 0 12.8
2017-Apr-23 22:24 040 0 13.3
2017-Apr-23 22:19 040 13.3
2017-Apr-23 22:14 040 0 13.3
2017-Apr-23 22:09 040 0 13.3
2017-Apr-23 22:04 040 0 13.3
2017-Apr-23 21:59 040 0 13.3
2017-Apr-23 21:54 040 0 13.3
2017-Apr-23 21:49 040 0 13.3
2017-Apr-23 21:44 040 0 13.3
2017-Apr-23 21:39 040 0 13.9
2017-Apr-23 21:34 040 0 13.9
2017-Apr-23 21:29 040 0 13.9
2017-Apr-23 21:24 360 0 13.9
2017-Apr-23 21:19 360 0 13.9
2017-Apr-23 21:14 359 13.9
2017-Apr-23 21:09 359 0 13.9
2017-Apr-23 21:04 360 0 13.9
2017-Apr-23 20:59 359 0 13.9
2017-Apr-23 20:54 360 1 13.9
2017-Apr-23 20:49 359 1 14.4
2017-Apr-23 20:44 360 0 14.4
2017-Apr-23 20:39 359 0 14.4
2017-Apr-23 20:34 008 1 14.4
2017-Apr-23 20:29 353 0 15.0
2017-Apr-23 20:24 346 1 15.0
2017-Apr-23 20:19 271 2 15.6
2017-Apr-23 20:14 272 2 15.6
2017-Apr-23 20:09 241 2 15.6
2017-Apr-23 20:04 258 1 15.6
2017-Apr-23 19:59 240 1 15.6
2017-Apr-23 19:54 251 1 15.6
2017-Apr-23 19:49 258 2 15.6
2017-Apr-23 19:44 260 2 15.6
2017-Apr-23 19:39 250 2 15.6
2017-Apr-23 19:34 240 2 15.6
2017-Apr-23 19:29 253 2 15.6
2017-Apr-23 19:24 232 1 16.1
2017-Apr-23 19:19 230 1 16.1
2017-Apr-23 19:14 258 1 16.1
2017-Apr-23 19:09 263 1 16.1
2017-Apr-23 19:04 263 1 16.1
2017-Apr-23 18:59 248 1 16.1
2017-Apr-23 18:54 258 1 16.1
2017-Apr-23 18:49 268 1 16.1
2017-Apr-23 18:44 256 2 16.1
2017-Apr-23 18:39 229 2 16.1
2017-Apr-23 18:34 244 2 16.1
2017-Apr-23 18:29 224 2 16.1
2017-Apr-23 18:24 247 3 16.1
2017-Apr-23 18:19 263 4 16.1
2017-Apr-23 18:14 263 2 16.7
2017-Apr-23 18:09 270 2 16.7
2017-Apr-23 18:04 244 3 16.1
2017-Apr-23 17:59 246 4 16.1
2017-Apr-23 17:54 232 4 16.1
2017-Apr-23 17:49 261 4 16.7
2017-Apr-23 17:44 254 4 16.7
2017-Apr-23 17:39 260 3 16.7
2017-Apr-23 17:34 261 3 16.7
2017-Apr-23 17:29 260 3 16.7
2017-Apr-23 17:24 224 3 17.2
2017-Apr-23 17:19 234 3 17.2
2017-Apr-23 17:14 270 3 16.7
2017-Apr-23 17:09 261 3 17.2
2017-Apr-23 17:04 229 3 16.7
2017-Apr-23 16:59 222 3 17.2
2017-Apr-23 16:54 227 4 17.2
2017-Apr-23 16:49 256 4 16.7
2017-Apr-23 16:44 216 5 16.7
2017-Apr-23 16:39 243 4 16.7
2017-Apr-23 16:34 278 4 17.2
2017-Apr-23 16:29 232 5 17.2
2017-Apr-23 16:24 236 4 17.2
2017-Apr-23 16:19 254 4 17.2
2017-Apr-23 16:14 258 5 17.2
2017-Apr-23 16:09 243 5 17.2
2017-Apr-23 16:04 247 5 17.2
2017-Apr-23 15:59 265 5 17.2
2017-Apr-23 15:54 241 5 17.2
2017-Apr-23 15:49 206 6 17.2
2017-Apr-23 15:44 264 6 17.2
2017-Apr-23 15:39 243 6 17.2
2017-Apr-23 15:34 216 6 17.2
2017-Apr-23 15:29 261 6 17.2
2017-Apr-23 15:24 226 6 17.2
2017-Apr-23 15:19 216 6 17.2
2017-Apr-23 15:14 246 6 17.2
2017-Apr-23 15:09 241 6 17.2
2017-Apr-23 15:04 217 6 17.2
2017-Apr-23 14:59 278 6 17.8
2017-Apr-23 14:54 233 6 17.2
2017-Apr-23 14:49 236 6 17.2
2017-Apr-23 14:44 206 6 17.2
2017-Apr-23 14:39 271 6 17.8
2017-Apr-23 14:34 258 6 17.2
2017-Apr-23 14:29 263 6 17.2
2017-Apr-23 14:24 270 6 17.2
2017-Apr-23 14:19 256 6 17.2
2017-Apr-23 14:14 277 6 17.8
2017-Apr-23 14:09 192 6 17.2
2017-Apr-23 14:04 267 6 17.2
2017-Apr-23 13:59 213 6 17.2
2017-Apr-23 13:54 234 6 17.8
2017-Apr-23 13:49 260 6 17.8
2017-Apr-23 13:44 206 6 17.2
2017-Apr-23 13:39 240 6 17.2
2017-Apr-23 13:34 232 5 17.8
2017-Apr-23 13:29 243 5 17.8
2017-Apr-23 13:24 240 6 17.2
2017-Apr-23 13:19 223 6 17.8
2017-Apr-23 13:14 241 5 17.8
2017-Apr-23 13:05 264 5 17.8
2017-Apr-23 13:04 265 5 17.8
2017-Apr-23 12:59 224 6 17.8
2017-Apr-23 12:54 256 6 17.8
2017-Apr-23 12:49 236 6 17.8
2017-Apr-23 12:44 272 5 18.3
2017-Apr-23 12:39 237 5 18.3
2017-Apr-23 12:34 206 6 17.8
2017-Apr-23 12:29 244 6 17.2
2017-Apr-23 12:24 265 6 17.8
2017-Apr-23 12:19 253 6 17.8
2017-Apr-23 12:14 267 5 17.8
2017-Apr-23 12:09 246 5 17.8
2017-Apr-23 12:04 233 6 17.2
2017-Apr-23 11:59 229 6 17.2
2017-Apr-23 11:54 229 6 16.7
2017-Apr-23 11:49 258 6 17.2
2017-Apr-23 11:44 271 6 17.2
2017-Apr-23 11:39 256 6 17.2
2017-Apr-23 11:34 237 6 17.2
2017-Apr-23 11:29 206 4 17.2
2017-Apr-23 11:24 233 4 17.8
2017-Apr-23 11:19 239 5 17.2
2017-Apr-23 11:14 239 5 17.2
2017-Apr-23 11:09 247 4 17.2
2017-Apr-23 11:04 257 4 17.2
2017-Apr-23 10:59 233 5 17.2
2017-Apr-23 10:54 246 6 16.7
2017-Apr-23 10:49 268 6 16.7
2017-Apr-23 10:44 208 6 16.7
2017-Apr-23 10:39 256 5 17.2
2017-Apr-23 10:34 257 6 17.2
2017-Apr-23 10:29 243 6 16.7
2017-Apr-23 10:24 251 6 16.7
2017-Apr-23 10:19 246 6 16.7
2017-Apr-23 10:14 257 6 16.7
2017-Apr-23 10:09 239 6 16.7
2017-Apr-23 10:04 223 6 16.7
2017-Apr-23 09:59 253 6 16.7
2017-Apr-23 09:54 272 6 17.2
2017-Apr-23 09:49 284 6 17.2
2017-Apr-23 09:44 257 5 17.2
2017-Apr-23 09:39 230 6 17.2
2017-Apr-23 09:34 244 6 16.7
2017-Apr-23 09:29 254 5 17.2
2017-Apr-23 09:24 219 5 16.7
2017-Apr-23 09:19 261 5 16.7
2017-Apr-23 09:14 265 6 16.7
2017-Apr-23 09:09 239 6 16.7
2017-Apr-23 09:04 199 5 16.7
2017-Apr-23 08:59 258 5 16.7
2017-Apr-23 08:54 280 5 16.7
2017-Apr-23 08:49 234 5 16.7
2017-Apr-23 08:44 246 5 16.7
2017-Apr-23 08:39 258 4 16.7
2017-Apr-23 08:34 277 3 17.2
2017-Apr-23 08:29 287 1 16.7
2017-Apr-23 08:24 288 2 16.1
2017-Apr-23 08:19 274 2 16.1
2017-Apr-23 08:14 220 2 15.6
2017-Apr-23 08:09 253 1 15.6
2017-Apr-23 08:04 289 1 15.6
2017-Apr-23 07:59 308 1 15.6
2017-Apr-23 07:54 282 1 15.0
2017-Apr-23 07:49 253 1 15.0
2017-Apr-23 07:44 308 1 15.0
2017-Apr-23 07:39 253 1 15.0
2017-Apr-23 07:34 274 2 14.4
2017-Apr-23 07:29 229 2 14.4
2017-Apr-23 07:24 306 2 14.4
2017-Apr-23 07:19 270 2 14.4
2017-Apr-23 07:14 275 3 14.4
2017-Apr-23 07:09 274 3 14.4
2017-Apr-23 07:04 263 3 13.9
2017-Apr-23 06:59 280 1 13.9
2017-Apr-23 06:54 299 0 13.3
2017-Apr-23 06:49 318 0 12.8
2017-Apr-23 06:44 014 0 12.8
2017-Apr-23 06:39 014 12.2
2017-Apr-23 06:34 014 0 12.2
2017-Apr-23 06:29 014 0 11.7
2017-Apr-23 06:24 066 0 11.1
2017-Apr-23 06:19 066 0 11.1
2017-Apr-23 06:14 056 0 11.1
2017-Apr-23 06:09 056 0 10.6
2017-Apr-23 06:04 044 10.6
2017-Apr-23 05:59 044 10.6
2017-Apr-23 05:54 044 10.0
2017-Apr-23 05:49 044 0 9.4
2017-Apr-23 05:44 044 0 9.4
2017-Apr-23 05:39 031 0 9.4
2017-Apr-23 05:34 058 0 8.9
2017-Apr-23 05:29 058 0 8.9
2017-Apr-23 05:24 056 0 8.9
2017-Apr-23 05:19 034 0 8.9
2017-Apr-23 05:14 034 0 8.9
2017-Apr-23 05:09 034 0 8.9
2017-Apr-23 05:04 055 0 8.9
2017-Apr-23 04:59 072 0 8.9
2017-Apr-23 04:54 058 0 8.9
2017-Apr-23 04:49 048 1 8.9
2017-Apr-23 04:44 055 1 8.9
2017-Apr-23 04:39 051 0 8.9
2017-Apr-23 04:34 054 0 8.9
2017-Apr-23 04:29 054 0 8.9
2017-Apr-23 04:24 054 0 9.4
2017-Apr-23 04:19 054 1 9.4
2017-Apr-23 04:14 038 0 9.4
2017-Apr-23 04:09 047 0 9.4
2017-Apr-23 04:04 047 0 9.4
2017-Apr-23 03:59 023 0 9.4
2017-Apr-23 03:54 023 0 9.4
2017-Apr-23 03:49 065 1 9.4
2017-Apr-23 03:44 042 1 9.4
2017-Apr-23 03:39 045 1 9.4
2017-Apr-23 03:34 049 1 9.4
2017-Apr-23 03:29 054 1 9.4
2017-Apr-23 03:24 054 0 9.4
2017-Apr-23 03:19 052 0 9.4
2017-Apr-23 03:14 045 0 9.4
2017-Apr-23 03:09 008 9.4
2017-Apr-23 03:04 010 0 9.4
2017-Apr-23 02:59 010 0 9.4
2017-Apr-23 02:54 010 0 9.4
2017-Apr-23 02:49 010 0 9.4
2017-Apr-23 02:44 010 0 9.4
2017-Apr-23 02:39 010 0 9.4
2017-Apr-23 02:34 010 0 9.4
2017-Apr-23 02:29 010 0 9.4
2017-Apr-23 02:24 021 0 9.4
2017-Apr-23 02:19 021 0 9.4
2017-Apr-23 02:14 021 0 9.4
2017-Apr-23 02:09 041 0 9.4
2017-Apr-23 02:04 041 0 10.0
2017-Apr-23 01:59 041 0 10.0
2017-Apr-23 01:54 042 0 10.0
2017-Apr-23 01:49 041 0 10.0
2017-Apr-23 01:44 045 0 10.0
2017-Apr-23 01:39 056 0 10.0
2017-Apr-23 01:34 056 0 10.0
2017-Apr-23 01:29 056 0 10.0
2017-Apr-23 01:24 056 0 10.0
2017-Apr-23 01:19 059 0 10.0
2017-Apr-23 01:14 076 0 10.0
2017-Apr-23 01:09 360 0 10.0
2017-Apr-23 01:04 360 0 10.0
2017-Apr-23 00:59 360 0 10.0
2017-Apr-23 00:54 001 0 10.0
2017-Apr-23 00:49 360 0 10.6
2017-Apr-23 00:44 073 0 10.6
2017-Apr-23 00:39 045 0 10.6
2017-Apr-23 00:34 045 1 10.6
2017-Apr-23 00:29 035 0 10.6
2017-Apr-23 00:24 062 0 10.6
2017-Apr-23 00:19 045 0 10.6
2017-Apr-23 00:14 038 0 10.6
2017-Apr-23 00:09 038 0 10.6
2017-Apr-23 00:04 038 0 10.6
2017-Apr-22 23:59 038 0 10.6
2017-Apr-22 23:54 360 0 11.1
2017-Apr-22 23:49 013 1 11.1
2017-Apr-22 23:44 041 1 11.1
2017-Apr-22 23:39 034 1 11.1
2017-Apr-22 23:34 344 1 11.1
2017-Apr-22 23:29 064 0 11.1
2017-Apr-22 23:24 048 0 11.1
2017-Apr-22 23:19 031 0 11.7
2017-Apr-22 23:14 054 0 11.7
2017-Apr-22 23:09 031 11.7
2017-Apr-22 23:04 024 11.7
2017-Apr-22 22:59 024 11.7
2017-Apr-22 22:54 024 11.7
2017-Apr-22 22:49 051 0 11.7
2017-Apr-22 22:44 051 0 11.7
2017-Apr-22 22:39 051 11.7
2017-Apr-22 22:34 051 11.7
2017-Apr-22 22:29 051 11.7
2017-Apr-22 22:24 051 11.7
2017-Apr-22 22:19 051 12.2
2017-Apr-22 22:14 051 0 12.2
2017-Apr-22 22:09 051 0 12.2
2017-Apr-22 22:04 052 0 12.2
2017-Apr-22 21:59 052 0 12.2
2017-Apr-22 21:54 357 0 12.2
2017-Apr-22 21:49 359 0 12.8
2017-Apr-22 21:44 359 0 12.8
2017-Apr-22 21:39 357 0 12.8
2017-Apr-22 21:34 359 1 12.8
2017-Apr-22 21:29 359 1 13.3
2017-Apr-22 21:24 360 0 13.3
2017-Apr-22 21:19 360 0 13.9
2017-Apr-22 21:14 360 0 13.9
2017-Apr-22 21:09 360 0 13.9
2017-Apr-22 21:04 322 1 14.4
2017-Apr-22 20:59 278 1 14.4
2017-Apr-22 20:54 291 1 14.4
2017-Apr-22 20:49 298 1 14.4
2017-Apr-22 20:44 295 1 14.4
2017-Apr-22 20:39 313 1 14.4
2017-Apr-22 20:34 296 0 14.4
2017-Apr-22 20:29 260 1 14.4
2017-Apr-22 20:24 292 1 14.4
2017-Apr-22 20:19 281 2 14.4
2017-Apr-22 20:14 296 3 15.0
2017-Apr-22 20:09 296 2 15.0
2017-Apr-22 20:04 271 2 15.0
2017-Apr-22 19:59 282 2 15.0
2017-Apr-22 19:54 277 2 15.0
2017-Apr-22 19:49 285 2 15.0
2017-Apr-22 19:44 257 2 15.0
2017-Apr-22 19:39 251 4 15.0
2017-Apr-22 19:34 268 4 15.0
2017-Apr-22 19:29 265 4 15.0
2017-Apr-22 19:24 260 5 15.0
2017-Apr-22 19:19 282 5 15.0
2017-Apr-22 19:14 244 5 15.0
2017-Apr-22 19:09 247 6 15.0
2017-Apr-22 19:04 265 6 15.0
2017-Apr-22 18:59 261 5 15.0
2017-Apr-22 18:54 246 5 15.0
2017-Apr-22 18:49 267 5 15.0
2017-Apr-22 18:44 260 6 15.6
2017-Apr-22 18:34 281 6 15.6
2017-Apr-22 18:29 263 6 15.6
2017-Apr-22 18:24 244 6 15.6
2017-Apr-22 18:19 248 5 15.6
2017-Apr-22 18:14 263 5 15.6
2017-Apr-22 18:09 270 6 15.6
2017-Apr-22 18:04 263 6 16.1
2017-Apr-22 17:59 230 6 16.1
2017-Apr-22 17:54 257 6 16.1
2017-Apr-22 17:49 243 6 16.1
2017-Apr-22 17:44 233 6 16.1
2017-Apr-22 17:39 263 6 16.1
2017-Apr-22 17:34 226 6 16.1
2017-Apr-22 17:29 260 6 16.7
2017-Apr-22 17:24 239 6 16.7
2017-Apr-22 17:19 246 6 16.7
2017-Apr-22 17:14 264 6 16.7
2017-Apr-22 17:09 250 7 16.7
2017-Apr-22 17:04 260 7 16.7
2017-Apr-22 16:59 256 7 16.7
2017-Apr-22 16:54 223 8 16.7
2017-Apr-22 16:49 241 7 16.7
2017-Apr-22 16:44 260 7 16.7
2017-Apr-22 16:39 234 7 16.7
2017-Apr-22 16:34 254 6 16.7
2017-Apr-22 16:29 230 8 16.7
2017-Apr-22 16:24 215 7 16.7
2017-Apr-22 16:19 280 6 17.2
2017-Apr-22 16:14 241 7 17.2
2017-Apr-22 16:09 271 7 16.7
2017-Apr-22 16:04 268 7 17.2
2017-Apr-22 15:59 251 6 17.2
2017-Apr-22 15:54 254 6 17.2
2017-Apr-22 15:49 267 6 17.2
2017-Apr-22 15:44 268 6 17.2
2017-Apr-22 15:39 241 8 17.2
2017-Apr-22 15:34 272 8 17.2
2017-Apr-22 15:29 256 8 17.2
2017-Apr-22 15:24 277 7 17.2
2017-Apr-22 15:19 254 7 17.2
2017-Apr-22 15:14 270 6 17.2
2017-Apr-22 15:09 258 6 17.2
2017-Apr-22 15:04 254 7 17.2
2017-Apr-22 14:59 254 6 17.2
2017-Apr-22 14:54 280 6 17.2
2017-Apr-22 14:49 247 6 17.2
2017-Apr-22 14:44 250 6 17.8
2017-Apr-22 14:39 210 6 17.8
2017-Apr-22 14:34 256 7 17.2
2017-Apr-22 14:29 254 8 17.2
2017-Apr-22 14:24 260 8 17.2
2017-Apr-22 14:19 215 7 17.2
2017-Apr-22 14:14 254 6 17.8
2017-Apr-22 14:09 258 8 17.2
2017-Apr-22 14:04 253 7 17.2
2017-Apr-22 13:59 270 7 17.2
2017-Apr-22 13:54 272 8 16.7
2017-Apr-22 13:49 241 8 17.2
2017-Apr-22 13:44 271 7 17.2
2017-Apr-22 13:39 243 7 17.2
2017-Apr-22 13:34 260 8 16.7
2017-Apr-22 13:29 209 7 16.7
2017-Apr-22 13:24 227 6 17.2
2017-Apr-22 13:19 275 7 17.2
2017-Apr-22 13:14 274 8 17.2
2017-Apr-22 13:09 239 7 17.2
2017-Apr-22 13:04 233 7 17.2
2017-Apr-22 12:59 251 7 17.2
2017-Apr-22 12:54 264 6 17.2
2017-Apr-22 12:49 263 7 17.2
2017-Apr-22 12:44 215 9 16.7
2017-Apr-22 12:39 239 9 16.7
2017-Apr-22 12:34 271 8 16.7
2017-Apr-22 12:29 240 8 16.7
2017-Apr-22 12:24 258 8 16.7
2017-Apr-22 12:19 260 8 16.7
2017-Apr-22 12:14 267 7 16.7
2017-Apr-22 12:09 257 7 16.7
2017-Apr-22 12:04 241 8 16.7
2017-Apr-22 11:59 250 8 16.7
2017-Apr-22 11:54 271 7 16.7
2017-Apr-22 11:49 189 6 16.7
2017-Apr-22 11:44 256 6 16.7
2017-Apr-22 11:39 251 7 16.7
2017-Apr-22 11:34 257 8 16.7
2017-Apr-22 11:29 241 8 16.7
2017-Apr-22 11:24 217 8 16.1
2017-Apr-22 11:19 237 8 16.7
2017-Apr-22 11:14 270 7 16.7
2017-Apr-22 11:09 232 6 16.7
2017-Apr-22 11:04 227 7 16.7
2017-Apr-22 10:59 216 9 16.1
2017-Apr-22 10:54 243 8 16.1
2017-Apr-22 10:49 234 7 16.7
2017-Apr-22 10:44 254 7 16.7
2017-Apr-22 10:39 264 7 16.7
2017-Apr-22 10:34 263 8 16.1
2017-Apr-22 10:29 246 8 16.1
2017-Apr-22 10:24 224 7 16.1
2017-Apr-22 10:19 268 7 16.1
2017-Apr-22 10:14 254 7 16.1
2017-Apr-22 10:09 285 8 16.1
2017-Apr-22 10:04 240 8 16.1
2017-Apr-22 09:59 239 7 16.1
2017-Apr-22 09:54 237 7 16.1
2017-Apr-22 09:49 200 8 16.1
2017-Apr-22 09:44 256 8 16.1
2017-Apr-22 09:39 215 7 16.1
2017-Apr-22 09:34 237 7 16.1
2017-Apr-22 09:29 257 6 16.1
2017-Apr-22 09:24 265 6 16.1
2017-Apr-22 09:19 247 7 16.1
2017-Apr-22 09:14 305 7 15.6
2017-Apr-22 09:09 217 6 16.1
2017-Apr-22 09:04 223 6 15.6